Time,TemperatureF,DewpointF,PressureIn,WindDirection,WindDirectionDegrees,WindSpeedMPH,WindSpeedGustMPH,Humidity,HourlyPrecipIn,Conditions,Clouds,dailyrainin,SolarRadiationWatts/m^2,SoftwareType,DateUTC
2013-10-24 00:04:00,49.0,41.0,-100.00,North,359,6.0,8.0,74,0.00,,,0.00,0.000000,,2013-10-24 05:04:00,
2013-10-24 00:43:00,50.0,38.0,-100.00,North,351,6.0,9.0,64,0.00,,,0.00,0.000000,,2013-10-24 05:43:00,
2013-10-24 00:53:00,50.0,38.0,-100.00,North,351,6.0,9.0,64,0.00,,,0.00,0.000000,,2013-10-24 05:53:00,
2013-10-24 01:03:00,50.0,38.0,-100.00,North,351,6.0,9.0,64,0.00,,,0.00,0.000000,,2013-10-24 06:03:00,
2013-10-24 01:42:00,52.0,40.0,-100.00,NNW,327,5.0,9.0,63,0.00,,,0.00,0.000000,,2013-10-24 06:42:00,
2013-10-24 01:52:00,52.0,40.0,-100.00,NNW,327,5.0,9.0,63,0.00,,,0.00,0.000000,,2013-10-24 06:52:00,
2013-10-24 02:02:00,52.0,40.0,-100.00,NNW,327,5.0,9.0,63,0.00,,,0.00,0.000000,,2013-10-24 07:02:00,
2013-10-24 02:42:00,51.0,39.0,-100.00,WNW,299,3.0,6.0,64,0.00,,,0.00,0.000000,,2013-10-24 07:42:00,
2013-10-24 02:52:00,51.0,39.0,-100.00,WNW,299,3.0,6.0,64,0.00,,,0.00,0.000000,,2013-10-24 07:52:00,
2013-10-24 03:02:00,51.0,39.0,-100.00,WNW,299,3.0,6.0,64,0.00,,,0.00,0.000000,,2013-10-24 08:02:00,
2013-10-24 03:42:00,50.0,40.0,-100.00,NW,323,0.0,4.0,68,0.00,,,0.00,0.000000,,2013-10-24 08:42:00,
2013-10-24 03:53:00,50.0,40.0,-100.00,NW,323,0.0,4.0,68,0.00,,,0.00,0.000000,,2013-10-24 08:53:00,
2013-10-24 04:01:00,50.0,40.0,-100.00,NW,323,0.0,4.0,68,0.00,,,0.00,0.000000,,2013-10-24 09:01:00,
2013-10-24 04:43:00,52.0,39.0,-100.00,NNW,337,5.0,7.0,60,0.00,,,0.00,0.000000,,2013-10-24 09:43:00,
2013-10-24 04:53:00,52.0,39.0,-100.00,NNW,337,5.0,7.0,60,0.00,,,0.00,0.000000,,2013-10-24 09:53:00,
2013-10-24 05:03:00,52.0,39.0,-100.00,NNW,337,5.0,7.0,60,0.00,,,0.00,0.000000,,2013-10-24 10:03:00,
2013-10-24 05:43:00,52.0,39.0,-100.00,NW,307,4.0,9.0,62,0.00,,,0.00,0.000000,,2013-10-24 10:43:00,
2013-10-24 05:53:00,52.0,39.0,-100.00,NW,307,4.0,9.0,62,0.00,,,0.00,0.000000,,2013-10-24 10:53:00,
2013-10-24 06:02:00,52.0,39.0,-100.00,NW,307,4.0,9.0,62,0.00,,,0.00,0.000000,,2013-10-24 11:02:00,
2013-10-24 06:42:00,52.0,39.0,-100.00,NW,319,7.0,11.0,60,0.00,,,0.00,0.000000,,2013-10-24 11:42:00,
2013-10-24 06:53:00,52.0,39.0,-100.00,NW,319,7.0,11.0,60,0.00,,,0.00,0.000000,,2013-10-24 11:53:00,
2013-10-24 07:01:00,52.0,39.0,-100.00,NW,319,7.0,11.0,60,0.00,,,0.00,0.000000,,2013-10-24 12:01:00,
2013-10-24 07:42:00,51.0,40.0,-100.00,NNW,330,7.0,11.0,66,0.00,,,0.00,0.000000,,2013-10-24 12:42:00,
2013-10-24 09:42:00,48.0,37.0,-100.00,North,358,10.0,17.0,66,0.00,,,0.00,173.000000,,2013-10-24 14:42:00,
2013-10-24 09:52:00,48.0,37.0,-100.00,North,358,10.0,17.0,66,0.00,,,0.00,173.000000,,2013-10-24 14:52:00,
2013-10-24 10:01:00,48.0,37.0,-100.00,North,358,10.0,17.0,66,0.00,,,0.00,173.000000,,2013-10-24 15:01:00,
2013-10-24 10:43:00,48.0,37.0,-100.00,North,1,8.0,14.0,66,0.00,,,0.00,389.000000,,2013-10-24 15:43:00,
2013-10-24 10:53:00,48.0,37.0,-100.00,North,1,8.0,14.0,66,0.00,,,0.00,389.000000,,2013-10-24 15:53:00,
2013-10-24 11:03:00,48.0,37.0,-100.00,North,1,8.0,14.0,66,0.00,,,0.00,389.000000,,2013-10-24 16:03:00,
2013-10-24 11:43:00,50.0,37.0,-100.00,NNE,15,8.0,15.0,61,0.00,,,0.00,562.000000,,2013-10-24 16:43:00,
2013-10-24 11:53:00,50.0,37.0,-100.00,NNE,15,8.0,15.0,61,0.00,,,0.00,562.000000,,2013-10-24 16:53:00,
2013-10-24 12:03:00,50.0,37.0,-100.00,NNE,15,8.0,15.0,61,0.00,,,0.00,562.000000,,2013-10-24 17:03:00,
2013-10-24 12:43:00,53.0,39.0,-100.00,North,354,7.0,14.0,58,0.00,,,0.00,699.000000,,2013-10-24 17:43:00,
2013-10-24 12:52:00,53.0,39.0,-100.00,North,354,7.0,14.0,58,0.00,,,0.00,699.000000,,2013-10-24 17:52:00,
2013-10-24 13:02:00,53.0,39.0,-100.00,North,354,7.0,14.0,58,0.00,,,0.00,699.000000,,2013-10-24 18:02:00,
2013-10-24 13:42:00,54.0,37.0,-100.00,NNW,328,7.0,17.0,53,0.00,,,-99.99,616.000000,,2013-10-24 18:42:00,
2013-10-24 13:53:00,54.0,37.0,-100.00,NNW,328,7.0,17.0,53,0.00,,,-99.99,616.000000,,2013-10-24 18:53:00,
2013-10-24 14:02:00,54.0,37.0,-100.00,NNW,328,7.0,17.0,53,0.00,,,-99.99,616.000000,,2013-10-24 19:02:00,
2013-10-24 14:43:00,55.0,37.0,-100.00,NNW,336,8.0,16.0,50,0.00,,,0.00,711.000000,,2013-10-24 19:43:00,
2013-10-24 14:53:00,55.0,37.0,-100.00,NNW,336,8.0,16.0,50,0.00,,,0.00,711.000000,,2013-10-24 19:53:00,
2013-10-24 15:02:00,55.0,37.0,-100.00,NNW,336,8.0,16.0,50,0.00,,,0.00,711.000000,,2013-10-24 20:02:00,
2013-10-24 15:43:00,54.0,33.0,-100.00,NNW,337,8.0,16.0,45,0.00,,,0.00,737.000000,,2013-10-24 20:43:00,
2013-10-24 15:53:00,54.0,33.0,-100.00,NNW,337,8.0,16.0,45,0.00,,,0.00,737.000000,,2013-10-24 20:53:00,
2013-10-24 16:02:00,54.0,33.0,-100.00,NNW,337,8.0,16.0,45,0.00,,,0.00,737.000000,,2013-10-24 21:02:00,
2013-10-24 16:43:00,53.0,31.0,-100.00,NW,326,9.0,16.0,43,0.00,,,0.00,596.000000,,2013-10-24 21:43:00,
2013-10-24 16:54:00,53.0,31.0,-100.00,NW,326,9.0,16.0,43,0.00,,,0.00,596.000000,,2013-10-24 21:54:00,
2013-10-24 17:04:00,53.0,31.0,-100.00,NW,326,9.0,16.0,43,0.00,,,0.00,596.000000,,2013-10-24 22:04:00,
2013-10-24 17:43:00,53.0,32.0,-100.00,NW,324,7.0,14.0,44,0.00,,,0.00,404.000000,,2013-10-24 22:43:00,
2013-10-24 17:54:00,53.0,32.0,-100.00,NW,324,7.0,14.0,44,0.00,,,0.00,404.000000,,2013-10-24 22:54:00,
2013-10-24 18:03:00,53.0,32.0,-100.00,NW,324,7.0,14.0,44,0.00,,,0.00,404.000000,,2013-10-24 23:03:00,
2013-10-24 18:43:00,49.0,29.0,-100.00,NNW,337,5.0,11.0,46,0.00,,,0.00,177.000000,,2013-10-24 23:43:00,
2013-10-24 18:53:00,49.0,29.0,-100.00,NNW,337,5.0,11.0,46,0.00,,,0.00,177.000000,,2013-10-24 23:53:00,
2013-10-24 19:02:00,49.0,29.0,-100.00,NNW,337,5.0,11.0,46,0.00,,,0.00,177.000000,,2013-10-25 00:02:00,
2013-10-24 19:42:00,45.0,30.0,-100.00,North,356,5.0,8.0,55,0.00,,,0.00,8.000000,,2013-10-25 00:42:00,
2013-10-24 19:52:00,45.0,30.0,-100.00,North,356,5.0,8.0,55,0.00,,,0.00,8.000000,,2013-10-25 00:52:00,
2013-10-24 20:02:00,45.0,30.0,-100.00,North,356,5.0,8.0,55,0.00,,,0.00,8.000000,,2013-10-25 01:02:00,
2013-10-24 20:43:00,43.0,29.0,-100.00,NNE,14,6.0,9.0,57,0.00,,,0.00,0.000000,,2013-10-25 01:43:00,
2013-10-24 20:53:00,43.0,29.0,-100.00,NNE,14,6.0,9.0,57,0.00,,,0.00,0.000000,,2013-10-25 01:53:00,
2013-10-24 21:02:00,43.0,29.0,-100.00,NNE,14,6.0,9.0,57,0.00,,,0.00,0.000000,,2013-10-25 02:02:00,
2013-10-24 21:43:00,42.0,28.0,-100.00,NNE,17,6.0,11.0,58,0.00,,,0.00,0.000000,,2013-10-25 02:43:00,
2013-10-24 21:52:00,42.0,28.0,-100.00,NNE,17,6.0,11.0,58,0.00,,,0.00,0.000000,,2013-10-25 02:52:00,
2013-10-24 22:03:00,42.0,28.0,-100.00,NNE,17,6.0,11.0,58,0.00,,,0.00,0.000000,,2013-10-25 03:03:00,
2013-10-24 22:44:00,41.0,28.0,-100.00,North,2,10.0,14.0,59,0.00,,,0.00,0.000000,,2013-10-25 03:44:00,
2013-10-24 22:54:00,41.0,28.0,-100.00,North,2,10.0,14.0,59,0.00,,,0.00,0.000000,,2013-10-25 03:54:00,
2013-10-24 23:04:00,41.0,28.0,-100.00,North,2,10.0,14.0,59,0.00,,,0.00,0.000000,,2013-10-25 04:04:00,
2013-10-24 23:44:00,40.0,27.0,-100.00,North,0,9.0,16.0,60,0.00,,,0.00,0.000000,,2013-10-25 04:44:00,
2013-10-24 23:54:00,40.0,27.0,-100.00,North,0,9.0,16.0,60,0.00,,,0.00,0.000000,,2013-10-25 04:54:00,